El Paso, TX

9:22 PM MDT on July 20, 2017 (GMT -0600)
El Paso International

Weather History for KELP - November, 2012

Change the Weather History Date:

Friday, November 2, 2012

  Actual Average Record
Temperature  
Mean Temperature 63 °F 59 °F  
Max Temperature 80 °F 72 °F 87 °F (1983)
Min Temperature 45 °F 45 °F 28 °F (1989)
Degree Days  
Heating Degree Days 2 7  
Month to date heating degree days 4 13  
Since 1 July heating degree days 47 96  
Cooling Degree Days 0 0  
Month to date cooling degree days 0 0  
Year to date cooling degree days 2869 2328  
Growing Degree Days 12 (Base 50)    
Moisture  
Dew Point 21 °F    
Average Humidity 23    
Maximum Humidity 34    
Minimum Humidity 12    
Precipitation  
Precipitation 0.00 in 0.02 in 0.47 in (1986)
Month to date precipitation 0.00 0.04  
Year to date precipitation 5.93 8.48  
Snow  
Snow 0.00 in - - ()
Month to date snowfall 0.0  
Since 1 July snowfall 0.0  
Since 1 September snowfall 0.0  
Snow Depth 0.00 in    
Sea Level Pressure  
Sea Level Pressure 29.87 in    
Wind  
Wind Speed 4 mph (NNE)    
Max Wind Speed 14 mph    
Max Gust Speed 17 mph    
Visibility 10 miles    
Events      
T = Trace of Precipitation, MM = Missing Value Source: NWS Daily Summary

Daily Weather History Graph

Daily Weather History Graph

Search for Another Location

Airport or City:

Trip Planner

Search our weather history database for the weather conditions in past years. The results will help you decide how hot, cold, wet, or windy it might be!

Date:

Astronomy

Nov. 02, 2012 Rise Set
Actual Time 7:23 AM MDT 6:14 PM MDT
Civil Twilight 6:57 AM MDT 6:39 PM MDT
Nautical Twilight 6:28 AM MDT 7:08 PM MDT
Astronomical Twilight 6:00 AM MDT 7:37 PM MDT
Moon 9:11 PM MDT (11/2) 10:38 AM MDT (11/2)
Length of Visible Light 11h 41m
Length of Day
10h 51m
Waning Gibbous, 87% of the Moon is Illuminated
Nov 2
Waning Gibbous
Nov 6
Last Quarter
Nov 13
New
Nov 20
First Quarter
Nov 28
Full

Hourly Weather History & Observations

Time (MDT) Temp. Windchill Dew Point Humidity Pressure Visibility Wind Dir Wind Speed Gust Speed Precip Events Conditions
12:51 AM 52.0 °F - 17.1 °F 25% 29.88 in 10.0 mi East 4.6 mph - N/A   Partly Cloudy
1:51 AM 55.9 °F - 21.9 °F 27% 29.86 in 10.0 mi South 5.8 mph - N/A   Partly Cloudy
2:51 AM 53.1 °F - 21.0 °F 29% 29.86 in 10.0 mi Calm Calm - N/A   Partly Cloudy
3:51 AM 48.9 °F - 19.9 °F 32% 29.85 in 10.0 mi Calm Calm - N/A   Partly Cloudy
4:51 AM 48.9 °F - 19.0 °F 31% 29.86 in 10.0 mi Calm Calm - N/A   Partly Cloudy
5:51 AM 50.0 °F - 21.0 °F 32% 29.87 in 10.0 mi NW 4.6 mph - N/A   Partly Cloudy
6:51 AM 46.0 °F - 19.0 °F 34% 29.90 in 10.0 mi Calm Calm - N/A   Partly Cloudy
7:51 AM 46.0 °F 42.5 °F 14.0 °F 28% 29.93 in 10.0 mi NNE 6.9 mph - N/A   Partly Cloudy
8:51 AM 51.1 °F - 15.1 °F 24% 29.94 in 10.0 mi North 8.1 mph - N/A   Partly Cloudy
9:51 AM 59.0 °F - 16.0 °F 19% 29.95 in 10.0 mi North 5.8 mph - N/A   Partly Cloudy
10:51 AM 66.0 °F - 17.1 °F 15% 29.92 in 10.0 mi NNE 4.6 mph - N/A   Partly Cloudy
11:51 AM 69.1 °F - 19.0 °F 15% 29.91 in 10.0 mi ESE 4.6 mph - N/A   Partly Cloudy
12:51 PM 72.0 °F - 19.0 °F 13% 29.89 in 10.0 mi SSE 3.5 mph - N/A   Scattered Clouds
1:51 PM 75.9 °F - 19.9 °F 12% 29.84 in 10.0 mi Variable 3.5 mph - N/A   Scattered Clouds
2:51 PM 77.0 °F - 21.9 °F 13% 29.82 in 10.0 mi Calm Calm - N/A   Scattered Clouds
3:51 PM 78.1 °F - 23.0 °F 13% 29.81 in 10.0 mi Calm Calm - N/A   Scattered Clouds
4:51 PM 78.1 °F - 23.0 °F 13% 29.80 in 10.0 mi Calm Calm - N/A   Mostly Cloudy
5:51 PM 77.0 °F - 24.1 °F 14% 29.81 in 10.0 mi Calm Calm - N/A   Mostly Cloudy
6:51 PM 73.9 °F - 25.0 °F 16% 29.83 in 10.0 mi Calm Calm - N/A   Mostly Cloudy
7:51 PM 71.1 °F - 25.0 °F 18% 29.84 in 10.0 mi NNW 3.5 mph - N/A   Mostly Cloudy
8:51 PM 68.0 °F - 25.0 °F 20% 29.85 in 10.0 mi Calm Calm - N/A   Scattered Clouds
9:51 PM 62.1 °F - 24.1 °F 23% 29.86 in 10.0 mi East 9.2 mph - N/A   Mostly Cloudy
10:51 PM 62.1 °F - 25.0 °F 24% 29.85 in 10.0 mi WNW 6.9 mph - N/A   Scattered Clouds
11:51 PM 64.0 °F - 26.1 °F 24% 29.85 in 10.0 mi WSW 10.4 mph - N/A   Scattered Clouds